Wind_Speed
7 7 6 1 4 5 1 3 1 3 1 2 4 4 6 4 3 3 14 18 25 24 21 17 14 12 11 8 12 12 13 14 13 14 17 14 10 6 5 6 7 9 13 16 15 16 15 15 15
8 7 2 3 4 3 4 3 6 4 8 17 10 7 3 1 3 9 20 20 26 21 20 16 14 15 12 10 12 13 14 13 12 14 14 12 8 5 4 6 7 9 12 15 14 15 15 13 14
8 5 2 4 3 4 4 4 5 5 14 3 4 6 3 3 5 19 15 25 27 21 18 17 15 13 11 11 12 12 12 12 13 13 12 10 7 5 6 8 8 9 10 13 11 12 13 10 11
6 2 4 4 2 3 4 5 4 7 3 3 9 6 3 1 14 16 24 24 25 21 18 15 13 13 12 11 11 11 11 12 12 12 11 8 6 6 7 8 8 9 9 10 10 11 11 11 12
4 2 4 3 3 2 1 11 10 2 6 7 5 4 3 12 10 15 23 22 21 20 18 15 13 12 11 10 9 9 9 10 10 10 10 8 6 5 7 7 8 8 8 8 10 11 12 10 12
2 3 4 2 3 2 1 13 5 3 6 8 6 7 6 14 12 17 19 20 18 16 17 16 14 13 12 11 9 8 8 8 8 8 8 6 6 6 6 6 7 7 8 8 9 9 10 9 12
6 4 5 4 3 1 5 11 5 7 7 4 12 5 5 19 15 14 18 17 16 16 17 17 16 16 14 12 10 9 8 8 6 6 6 5 6 5 5 5 6 6 6 8 8 8 7 7 8
3 5 4 3 5 3 5 10 9 9 5 8 8 4 4 20 19 17 17 15 16 17 18 18 18 16 16 14 11 9 8 7 7 5 5 5 5 5 5 5 4 4 4 5 6 7 6 6 7
4 4 2 4 6 3 10 3 7 4 8 6 8 4 4 20 22 24 22 20 18 18 19 20 20 18 17 16 14 11 9 8 8 7 5 4 3 4 5 4 4 4 4 5 5 5 4 5 7
4 4 8 3 5 4 9 4 11 6 7 5 7 7 7 23 26 28 28 28 24 22 22 21 20 20 19 18 16 14 12 10 9 8 7 5 4 4 4 3 3 3 3 4 5 5 5 4 4
4 5 5 2 2 5 6 1 6 8 3 11 14 13 14 25 27 29 29 26 24 22 22 23 21 22 22 20 19 18 15 14 13 12 10 8 7 7 6 5 4 4 3 2 3 4 4 3 4
3 2 5 6 4 5 6 4 4 11 7 6 15 12 16 24 28 29 29 27 27 27 23 22 22 22 24 23 22 20 19 17 16 14 13 13 11 9 8 7 6 5 3 2 3 4 3 3 3
3 3 5 5 4 3 4 4 5 12 14 7 7 17 18 22 24 26 27 28 27 29 27 24 22 23 25 25 24 23 22 21 18 18 17 16 15 12 11 11 9 7 7 4 5 5 3 4 4
5 5 4 3 3 2 3 2 2 3 15 14 12 13 19 22 23 25 28 29 31 30 31 28 26 23 21 26 27 26 25 23 22 22 21 20 18 16 14 13 14 10 8 10 8 8 7 6 8
7 3 2 2 2 2 3 4 7 10 5 10 18 17 20 21 25 27 24 25 27 30 31 33 31 28 27 24 25 25 25 23 23 22 22 23 20 17 17 14 15 17 12 12 12 12 12 13 11
5 5 1 1 4 1 3 7 3 2 7 12 14 17 22 24 25 25 28 27 28 30 31 32 34 33 31 29 27 27 26 25 26 26 27 25 25 22 21 21 19 18 21 19 17 16 17 17 18
6 3 3 5 7 2 2 6 5 4 2 8 6 14 19 23 27 28 28 30 29 30 31 32 34 35 34 32 30 30 29 30 29 27 29 28 28 27 27 25 22 22 24 25 25 24 22 22 21
5 3 3 3 2 1 2 9 7 15 13 17 18 19 22 24 27 24 24 27 30 30 31 33 34 34 35 34 33 32 34 35 35 35 31 31 32 30 29 29 29 25 29 30 31 30 30 27 26
6 4 4 0 1 2 5 7 12 23 17 24 25 25 27 29 29 26 26 24 27 31 32 31 34 35 37 38 38 38 38 39 41 40 36 32 33 33 33 31 32 31 32 29 31 33 37 33 31
4 3 1 1 1 1 5 11 11 18 15 24 26 24 19 19 23 23 23 25 25 26 28 31 31 32 33 36 37 38 37 39 39 39 38 38 35 36 37 36 35 33 33 35 36 39 37 36 37
2 4 3 3 2 3 5 8 6 5 6 11 13 17 21 19 17 11 11 20 24 26 26 27 30 33 33 32 36 38 38 39 40 42 41 43 37 39 39 39 40 40 40 41 40 39 37 43 38
4 5 5 4 3 3 2 5 6 5 10 9 18 15 14 10 6 6 7 7 13 18 22 25 27 31 33 33 34 34 35 38 35 36 35 36 37 40 40 42 43 43 41 41 44 42 42 43 44
4 4 5 3 4 3 4 1 7 4 7 8 11 7 10 11 10 9 6 2 1 6 14 18 21 27 32 33 33 32 33 33 33 33 34 33 33 37 39 40 41 43 43 42 43 44 44 43 48
8 6 7 5 3 1 5 5 5 3 2 2 7 7 8 8 8 7 7 6 2 3 5 8 14 19 24 27 29 29 29 29 31 32 33 32 31 31 34 39 44 45 45 45 44 45 46 48 49
4 6 2 3 2 5 1 2 8 6 5 3 8 5 7 7 6 5 5 6 5 4 4 4 3 5 10 16 21 23 25 26 28 29 29 30 31 32 32 33 37 41 44 46 46 47 47 48 50
5 6 5 7 4 3 2 5 5 5 7 1 4 6 8 11 10 8 9 10 10 11 12 10 8 5 4 7 11 16 19 21 21 21 21 24 26 27 28 30 33 36 39 41 44 46 48 49 52
5 3 5 7 3 3 3 6 10 5 6 9 12 12 15 17 19 22 19 19 25 25 22 19 17 16 14 9 7 6 8 11 13 15 17 20 22 24 25 27 29 32 35 38 41 44 47 48 49
4 7 3 3 2 3 4 4 5 3 6 4 8 13 16 21 21 22 18 17 18 17 17 16 15 15 15 14 11 11 13 14 15 17 19 21 24 27 30 31 32 32 34 35 37 41 44 45 46
3 3 4 4 4 5 1 5 6 5 8 9 10 15 8 11 16 16 15 14 12 14 11 14 12 14 14 14 13 13 14 17 19 22 23 25 28 30 32 34 35 37 37 36 37 38 40 42 41
2 6 6 5 4 2 3 5 4 9 13 17 11 14 12 6 9 15 11 11 13 13 12 12 13 16 16 16 16 17 17 18 21 25 26 29 33 33 34 35 37 38 39 39 39 37 38 39 40
Wind_Direction
256 283 290 176 53 65 192 240 208 140 126 157 138 157 161 100 158 202 143 156 158 156 156 153 144 139 105 91 92 100 103 101 104 119 125 114 124 136 103 77 80 99 103 101 91 95 95 91 93
238 265 227 99 94 90 266 259 178 199 134 120 97 95 69 117 135 149 147 159 163 161 160 159 149 138 132 126 106 98 96 101 107 116 124 122 134 116 91 77 94 107 110 104 102 99 99 98 87
232 250 154 95 111 167 188 208 199 146 151 144 105 80 96 136 174 163 158 153 164 167 165 159 157 144 132 117 115 113 110 109 110 117 130 134 135 111 95 84 98 109 114 110 102 103 99 90 85
218 184 70 87 168 228 210 171 210 142 155 179 140 80 97 105 150 152 152 152 159 164 172 169 164 158 145 131 127 126 121 118 118 124 132 126 114 106 98 92 101 115 124 111 115 110 101 91 95
179 113 59 70 293 268 246 149 172 170 146 148 151 162 106 140 155 163 163 159 163 171 176 177 173 168 159 142 137 136 131 126 120 121 129 129 119 112 103 102 108 118 126 122 125 113 104 98 102
132 100 66 132 259 360 75 159 179 184 153 151 130 132 140 164 161 164 171 174 177 180 179 183 178 179 174 162 157 156 148 136 129 120 118 116 113 112 113 115 120 125 132 137 140 137 127 116 116
135 86 168 166 199 169 206 187 181 180 155 198 150 125 181 180 173 172 175 175 184 195 195 187 186 189 186 182 175 170 162 158 145 130 118 108 103 104 109 114 119 124 139 147 153 154 148 132 129
148 92 120 206 186 223 176 167 184 163 191 154 158 183 202 189 183 178 177 185 187 195 202 199 196 195 195 195 191 184 175 174 169 157 134 114 113 111 104 107 113 123 142 157 166 170 165 153 142
138 69 150 211 151 221 158 142 172 191 157 177 196 253 251 181 179 179 179 185 194 199 202 202 204 203 203 204 201 197 192 191 191 188 173 151 149 138 129 126 129 127 144 171 180 182 182 170 164
102 111 205 213 181 178 173 168 159 168 161 201 200 217 195 184 185 187 188 192 197 199 201 207 209 209 211 211 211 210 206 207 207 207 205 196 187 180 169 157 155 150 163 180 188 193 197 202 209
146 165 190 197 120 154 156 200 186 153 242 213 212 207 186 186 195 199 200 204 202 203 208 205 212 216 218 218 219 218 217 218 218 217 217 218 218 214 205 200 190 182 186 199 196 197 207 226 248
112 180 167 163 141 146 160 174 215 205 216 236 232 225 202 192 199 205 210 212 208 210 215 214 216 220 221 223 224 225 225 225 226 227 229 230 229 224 222 215 212 212 211 228 200 205 224 242 257
125 171 144 150 159 169 173 196 235 245 227 208 213 208 212 209 209 212 217 218 217 218 221 222 223 226 223 224 227 229 231 233 236 235 236 236 233 233 233 229 222 229 224 233 225 211 238 261 272
167 133 140 168 176 163 164 229 175 291 230 223 224 212 214 217 220 214 215 220 220 224 227 228 230 230 229 229 230 232 234 237 239 240 241 240 239 236 236 235 228 223 252 238 246 246 247 264 278
115 86 24 195 228 164 162 269 231 247 249 224 229 226 226 226 224 228 229 227 228 229 229 231 235 238 238 237 233 231 233 234 235 236 245 246 245 245 244 243 242 243 244 248 254 269 268 259 261
77 53 92 271 161 227 126 265 265 262 242 243 241 230 226 229 234 236 235 236 234 234 234 233 236 240 242 241 239 234 234 233 234 236 239 244 245 243 244 246 244 251 250 247 241 259 264 271 260
12 171 208 309 193 135 125 259 265 163 49 303 261 244 239 239 238 239 240 240 239 240 238 237 236 240 242 243 243 240 238 237 243 241 241 246 248 246 247 250 253 249 253 253 248 246 253 261 264
184 186 222 230 213 173 143 265 279 276 285 281 280 260 250 250 248 247 247 244 242 241 242 242 242 243 243 245 246 244 242 240 241 243 246 245 250 252 254 255 253 255 254 255 255 250 256 254 252
136 144 157 195 350 196 250 263 278 282 285 278 273 269 267 262 261 251 248 248 244 242 240 240 241 243 241 241 242 244 242 240 241 245 245 247 248 254 258 258 256 255 254 269 254 259 251 250 249
126 122 196 16 83 168 343 283 262 272 263 269 274 276 275 281 272 256 247 244 242 242 241 241 241 243 244 243 246 246 247 247 248 251 248 251 248 250 255 259 257 256 260 260 259 257 264 254 250
177 163 179 171 46 45 344 297 321 297 277 272 264 278 284 290 286 276 254 245 242 242 243 245 245 243 244 246 244 247 247 250 251 252 254 252 251 249 253 256 260 261 264 264 264 262 266 256 258
175 193 134 139 95 235 16 283 308 309 303 291 293 300 300 311 318 311 279 251 243 246 248 247 248 247 247 246 248 251 254 255 262 263 265 263 257 252 252 255 259 262 262 263 263 262 264 265 255
182 104 118 90 97 63 321 60 273 330 290 302 337 48 68 65 60 57 62 134 270 244 245 248 250 248 247 247 250 255 259 266 271 271 270 271 266 256 251 252 256 260 262 263 263 260 261 264 261
150 82 54 55 82 330 234 162 285 224 212 354 11 31 36 44 57 59 58 65 40 302 280 261 254 252 251 251 253 257 262 268 270 272 273 274 273 268 262 260 256 258 262 263 264 265 265 267 265
84 83 11 348 7 221 47 111 251 275 273 237 308 338 17 18 8 351 331 335 336 344 346 328 305 271 259 258 260 263 267 269 272 271 272 271 269 267 265 263 262 261 262 263 264 265 267 267 269
183 155 158 198 199 255 92 233 245 204 317 239 33 45 49 47 40 40 43 52 46 44 46 50 45 27 323 275 268 268 271 272 272 272 273 273 273 271 270 267 265 265 266 268 267 266 266 266 265
185 178 156 104 24 58 225 289 306 86 56 84 75 65 57 64 69 70 68 73 78 67 62 60 56 50 35 12 346 314 296 293 295 292 284 284 285 283 278 271 265 263 263 264 265 267 269 270 271
150 160 81 10 143 255 284 270 226 111 98 90 51 64 85 87 77 69 61 56 59 56 54 49 46 33 22 15 346 324 322 315 309 305 305 306 301 296 290 284 278 271 267 264 262 262 264 266 269
136 169 68 123 146 172 203 256 225 140 146 100 52 46 63 77 57 39 36 42 40 34 27 21 17 7 359 345 333 320 305 297 294 300 302 308 304 300 292 285 281 277 273 269 265 264 264 264 267
153 175 150 149 211 238 152 265 21 135 116 95 73 58 36 66 27 6 26 14 2 2 359 354 343 336 332 325 316 315 307 297 291 297 295 298 298 295 291 285 280 278 278 277 274 272 269 269 271
Height
1530 1530 1530 1530 1542 1549 1555 1548 1540 1539 1539 1539 1539 1540 1542 1543 1546 1557 1546 1550 1553 1556 1559 1562 1565 1566 1567 1567 1567 1568 1569 1568 1569 1570 1570 1571 1571 1571 1572 1571 1570 1569 1569 1569 1569 1569 1568 1568 1569
1530 1531 1530 1531 1551 1561 1558 1543 1543 1539 1538 1539 1540 1541 1543 1545 1544 1545 1547 1550 1555 1557 1560 1563 1566 1567 1569 1569 1569 1569 1569 1571 1571 1572 1572 1573 1573 1573 1573 1572 1572 1572 1571 1572 1571 1571 1572 1571 1572
1530 1530 1530 1538 1556 1558 1553 1539 1538 1538 1539 1539 1541 1542 1543 1544 1544 1545 1547 1550 1555 1558 1561 1564 1567 1568 1569 1570 1570 1572 1572 1573 1573 1573 1574 1574 1574 1574 1574 1574 1574 1574 1574 1575 1574 1574 1574 1574 1574
1529 1530 1533 1544 1544 1539 1537 1535 1538 1537 1539 1539 1540 1543 1545 1545 1545 1547 1549 1552 1555 1559 1562 1565 1567 1569 1570 1571 1572 1573 1573 1573 1574 1574 1575 1576 1576 1576 1576 1576 1576 1576 1576 1576 1576 1577 1577 1577 1577
1528 1529 1542 1547 1544 1537 1535 1533 1538 1539 1537 1538 1540 1543 1545 1546 1547 1549 1551 1554 1556 1559 1562 1565 1567 1569 1571 1572 1573 1575 1575 1575 1575 1576 1577 1577 1577 1577 1577 1577 1577 1577 1577 1578 1578 1579 1580 1580 1580
1529 1530 1550 1553 1544 1536 1535 1534 1538 1539 1539 1539 1540 1543 1545 1546 1548 1550 1552 1555 1558 1561 1562 1565 1567 1570 1571 1573 1574 1576 1576 1576 1577 1578 1578 1578 1578 1579 1579 1579 1579 1579 1580 1580 1580 1582 1583 1583 1583
1527 1535 1546 1545 1545 1539 1537 1536 1538 1538 1538 1540 1540 1544 1545 1546 1548 1551 1553 1556 1559 1561 1563 1565 1567 1570 1572 1573 1574 1576 1576 1577 1578 1579 1580 1580 1580 1580 1581 1581 1581 1580 1581 1582 1583 1583 1584 1585 1585
1526 1530 1543 1543 1546 1539 1535 1536 1536 1537 1540 1539 1541 1542 1543 1544 1548 1550 1553 1555 1558 1561 1563 1565 1567 1569 1571 1573 1574 1576 1577 1578 1579 1580 1581 1582 1582 1583 1582 1583 1583 1582 1583 1583 1584 1585 1585 1586 1587
1526 1540 1549 1540 1543 1535 1534 1536 1537 1538 1539 1540 1540 1541 1541 1543 1547 1550 1551 1553 1556 1559 1562 1564 1566 1569 1571 1573 1574 1575 1577 1578 1580 1581 1582 1583 1584 1584 1584 1584 1585 1584 1584 1585 1585 1586 1587 1587 1588
1526 1541 1540 1532 1531 1532 1533 1534 1535 1538 1538 1539 1539 1540 1541 1542 1545 1546 1549 1550 1553 1556 1559 1562 1565 1567 1570 1572 1574 1575 1576 1578 1580 1581 1582 1583 1584 1584 1585 1585 1586 1585 1586 1586 1587 1587 1587 1588 1589
1527 1534 1531 1531 1530 1531 1532 1535 1536 1536 1539 1535 1535 1538 1539 1541 1545 1547 1548 1549 1551 1555 1558 1560 1563 1566 1568 1570 1573 1574 1575 1578 1579 1580 1582 1582 1584 1584 1584 1585 1586 1586 1586 1587 1587 1588 1588 1589 1589
1529 1528 1529 1530 1530 1532 1533 1534 1534 1535 1533 1533 1534 1536 1538 1540 1542 1544 1546 1548 1550 1552 1555 1558 1561 1563 1566 1569 1570 1572 1574 1576 1577 1578 1580 1581 1582 1583 1583 1584 1585 1586 1587 1587 1588 1589 1589 1589 1590
1527 1528 1529 1530 1531 1532 1533 1533 1536 1532 1533 1533 1533 1534 1535 1537 1539 1542 1545 1548 1551 1552 1554 1556 1558 1560 1563 1565 1567 1569 1571 1573 1575 1577 1578 1580 1581 1581 1582 1584 1585 1586 1587 1587 1588 1589 1589 1590 1590
1526 1528 1530 1530 1532 1533 1533 1534 1533 1531 1530 1531 1532 1533 1533 1535 1537 1539 1541 1543 1547 1550 1552 1555 1556 1559 1560 1562 1564 1566 1568 1571 1572 1574 1576 1578 1579 1580 1582 1583 1584 1585 1587 1588 1588 1589 1590 1589 1589
1527 1530 1531 1530 1533 1533 1533 1535 1531 1528 1530 1529 1530 1531 1532 1533 1535 1536 1538 1539 1542 1544 1549 1552 1555 1557 1559 1560 1562 1564 1566 1568 1569 1571 1573 1575 1577 1579 1581 1582 1584 1585 1586 1587 1588 1588 1588 1588 1588
1530 1536 1542 1531 1532 1534 1535 1539 1527 1525 1527 1529 1529 1529 1529 1530 1532 1533 1535 1537 1539 1541 1544 1549 1552 1554 1556 1557 1559 1561 1563 1564 1567 1568 1569 1572 1574 1576 1578 1580 1582 1583 1583 1584 1584 1586 1586 1586 1585
1540 1545 1543 1534 1531 1534 1534 1535 1526 1524 1526 1528 1527 1527 1527 1527 1528 1529 1531 1533 1536 1538 1541 1543 1546 1549 1552 1555 1557 1559 1561 1562 1563 1565 1567 1569 1571 1573 1574 1576 1578 1580 1580 1581 1582 1582 1582 1582 1583
1541 1541 1539 1536 1532 1534 1536 1534 1526 1524 1525 1525 1524 1523 1523 1523 1521 1524 1526 1528 1531 1534 1537 1540 1542 1545 1548 1552 1554 1556 1558 1558 1560 1561 1563 1565 1567 1569 1571 1572 1574 1576 1577 1577 1577 1578 1578 1578 1578
1531 1535 1535 1533 1532 1534 1536 1536 1527 1520 1520 1519 1518 1517 1516 1516 1515 1519 1521 1523 1525 1528 1530 1532 1536 1539 1543 1546 1548 1550 1550 1553 1555 1557 1560 1562 1564 1565 1566 1568 1569 1571 1571 1572 1572 1573 1572 1572 1573
1528 1533 1535 1533 1533 1536 1536 1534 1524 1518 1512 1513 1511 1511 1510 1509 1509 1512 1514 1516 1518 1521 1525 1528 1530 1533 1536 1539 1541 1544 1546 1548 1551 1553 1555 1557 1560 1561 1562 1562 1563 1566 1567 1566 1566 1567 1568 1568 1569
1530 1536 1534 1535 1536 1538 1539 1535 1526 1513 1509 1509 1507 1508 1507 1506 1505 1507 1508 1510 1512 1515 1518 1521 1525 1528 1530 1533 1536 1539 1542 1543 1545 1546 1549 1550 1553 1555 1556 1557 1557 1560 1561 1560 1560 1561 1561 1561 1561
1534 1528 1530 1534 1542 1553 1544 1556 1532 1520 1515 1507 1505 1505 1504 1504 1503 1505 1506 1507 1508 1510 1512 1515 1518 1522 1526 1529 1532 1534 1536 1536 1538 1540 1543 1545 1547 1549 1550 1551 1551 1551 1553 1553 1553 1554 1555 1555 1553
1526 1527 1532 1537 1547 1547 1550 1556 1533 1525 1516 1510 1506 1503 1504 1504 1504 1504 1504 1505 1506 1507 1509 1510 1513 1516 1519 1524 1527 1529 1531 1533 1534 1535 1536 1537 1539 1541 1543 1544 1544 1543 1543 1545 1545 1546 1547 1548 1547
1524 1531 1540 1550 1554 1562 1551 1551 1540 1526 1515 1510 1508 1507 1506 1505 1504 1505 1506 1506 1506 1506 1506 1507 1508 1511 1515 1519 1523 1525 1526 1527 1528 1530 1531 1532 1533 1535 1535 1536 1537 1536 1536 1536 1537 1538 1538 1537 1537
1524 1535 1557 1562 1571 1562 1553 1555 1537 1516 1514 1512 1510 1509 1508 1507 1505 1506 1505 1506 1506 1506 1506 1506 1507 1510 1513 1516 1519 1521 1522 1522 1523 1524 1524 1525 1525 1525 1527 1529 1528 1528 1528 1528 1528 1528 1529 1529 1528
1527 1528 1551 1562 1570 1556 1552 1549 1525 1510 1511 1510 1510 1509 1510 1508 1507 1506 1506 1506 1506 1508 1508 1509 1510 1511 1513 1515 1516 1518 1519 1519 1517 1517 1517 1517 1518 1519 1520 1521 1521 1521 1521 1521 1520 1519 1518 1517 1516
1526 1534 1533 1556 1599 1573 1546 1535 1514 1510 1513 1511 1510 1510 1510 1510 1510 1509 1509 1509 1510 1512 1512 1513 1513 1514 1515 1516 1516 1516 1515 1516 1515 1515 1514 1512 1513 1513 1513 1513 1512 1512 1512 1512 1511 1509 1507 1506 1505
1516 1521 1540 1554 1566 1571 1548 1539 1529 1512 1518 1515 1514 1512 1513 1513 1513 1512 1514 1514 1514 1514 1514 1514 1514 1515 1516 1516 1516 1516 1514 1514 1513 1512 1511 1510 1508 1507 1506 1504 1503 1503 1502 1501 1501 1499 1498 1497 1496
1520 1522 1528 1531 1544 1555 1566 1538 1516 1515 1516 1516 1516 1513 1513 1514 1514 1515 1516 1517 1516 1515 1515 1515 1514 1514 1514 1514 1514 1513 1512 1511 1510 1509 1508 1506 1504 1501 1498 1496 1494 1493 1492 1492 1491 1490 1489 1486 1486
1508 1513 1517 1533 1541 1550 1546 1534 1512 1513 1512 1514 1517 1517 1515 1515 1514 1514 1514 1515 1515 1514 1513 1512 1511 1511 1510 1510 1509 1508 1507 1506 1505 1505 1504 1501 1497 1494 1491 1488 1485 1484 1483 1483 1482 1482 1481 1480 1477